COSMOS 2251 DEB, 34316

Orbit data source: Space-Track

COSMOS 2251 DEB, 34316 is space debris in LEO originally from a launch on Wed, 16 Jun 1993 UTC launched from the Plesetsk Missile And Space Complex (PKMTR). The debris from Iridium 33, an American commercial communications satellite, has been tracked extensively since its accidental collision with the defunct Russian satellite Cosmos 2251 in 2009. This event, occurring at high speed in low Earth orbit (LEO), generated thousands of pieces of space debris, significantly increasing the risk of further collisions. The Iridium 33 debris cloud has impacted space traffic management and orbital debris mitigation strategies, making it a subject of ongoing study in space situational awareness.

Loading next visibility...
Identifier
34316, 1993-036NN
Orbit
LEO
Country
Flag of CISCIS
Related business
Manufacturer
Unknown
Mission
Spacecraft
Bus & Motor
Unknown
Mass
Unknown
Launch date (UTC)
1993-06-16 (33 years ago)
Launch vehicle
Unknown
Launch site
Plesetsk Missile And Space Complex (PKMTR)
Object type
Payload
Rocket body
Debris
Shape & HBR
Unknown shape, 0.1 m
Radar Cross Section
Small (<0.1 m²)

Expand to show TLE details & history
Last TLE update: 1 day ago

TLE from 1 day ago
0 COSMOS 2251 DEB
1 34316U 93036NN  26237.29680485  .00014758  00000-0  11149-2 0  9993
2 34316  74.0610 180.2255 0013788 224.2872 135.7214 15.02320207930359
Epoch: 2026-08-25T07:07Z
TLE epoch observation values (Epoch: 2026-08-25T07:07:23.939Z)
Latitude
-0°
Longitude
99.80957°
Altitude
569.293 km
Speed
7.573 km/s
True Right ascension
12h 00m 54s
True Declination
0° 00' 00"
Sunlit
Object was in daylight at epoch
Visualization orbit readout
Latitude
Unknown
Longitude
Unknown
Altitude
Unknown
Speed
Unknown
Apparent Right ascension
Unknown
Apparent Declination
Unknown
Sunlit
N/A
Visualization observer readout
Local Sidereal Time
03:16:37
Azimuth
Unknown
Elevation
Unknown
Doppler factor
Unknown
Orbital elements
Apogee altitude
566.855 km
Perigee altitude
547.73 km
Semi-major axis
6,935.43 km
Eccentricity
0.00138
Inclination
74.061°
RAAN
180.2255°
Arg. of periapsis
224.2872°
True anomaly
135.83157°
Mean anomaly
135.7214°
Eccentric anomaly
135.7765°
Mean motion
3.7578 °/min
Orbital period
95.8 mins
BSTAR
0.0011149
Loading maneuver chart data...
Computing Atmospheric mass density...

Documentation

Showing up to 5 results
|